Regional Weather Roundup
Issued by NWS

Home | Current Version | Previous Version | Text Only | Print | Product List | Glossary On
Versions: 1 2 3 4 5 6 7 8 9 10 11 12 13 14 15 16 17 18 19 20 21 22 23 24 25 26 27
000
ASUS42 KFFC 290703
RWRGA
WEATHER ROUNDUP FOR GEORGIA
NATIONAL WEATHER SERVICE PEACHTREE CITY GA
300 AM EDT MON AUG 29 2016

NOTE: "FAIR" INDICATES FEW OR NO CLOUDS BELOW 12,000 FEET WITH NO
SIGNIFICANT WEATHER AND/OR OBSTRUCTIONS TO VISIBILITY.

* = USE WITH CAUTION. THE STATIONS MARKED WITH AN ASTERISK MAY NOT
REPORT WEATHER SUCH AS PRECIPITATION, FOG, OR THUNDER AND ARE NOT
QUALITY CONTROLLED BY NWS.

THE REMARK "TC" DENOTES TEMPERATURE READING IN DEGREES CELSIUS.

GAZ001>058-290800-
NORTH GEORGIA

CITY           SKY/WX    TMP DP  RH WIND       PRES   REMARKS
ATLANTA        PTCLDY    76  67  73 E8        30.10F
ATHENS         CLEAR     73  68  84 E5        30.12F
CHAMBLEE       PTCLDY    77  65  66 VRB5      30.12F
PEACHTREE CITY CLEAR     77  68  73 CALM      30.10S
ROME           PTCLDY    73  70  90 NE3       30.10F
WEST ATLANTA   CLEAR     76  65  68 N3        30.10F
GAINESVILLE    PTCLDY    75  64  68 E6        30.17S
CARTERSVILLE   MOCLDY    73  70  90 CALM      30.11F


CITY           SKY/WX    TMP DP  RH WIND       PRES   REMARKS
DALTON*        CLEAR     72  72 100 CALM      30.12F
MARIETTA       PTCLDY    76  67  71 E1        30.12F
CANTON*        MOCLDY   N/A N/A N/A CALM      30.15F
BLAIRSVILLE*   FOG      N/A N/A N/A MISG      30.20F VSB<1/4
$$

GAZ059>098-102>109-290800-
CENTRAL GEORGIA

CITY           SKY/WX    TMP DP  RH WIND       PRES   REMARKS
AUGUSTA-BUSH   CLOUDY    75  73  93 CALM      30.08S
AUGUSTA-DANIEL CLOUDY    80  72  76 E3        30.09F
COLUMBUS       CLEAR     79  68  69 E8        30.04F
MACON          PTCLDY    76  70  82 NE6       30.07S
ROBINS AFB     PTCLDY    76  73  88 NE2       30.06S


CITY           SKY/WX    TMP DP  RH WIND       PRES   REMARKS
LAGRANGE*      CLEAR     79  74  83 CALM      30.07F
MILLEDGEVILLE* PTCLDY    79  73  83 CALM      30.09S
$$

GAZ099>101-110>166-290800-
SOUTH GEORGIA

CITY           SKY/WX    TMP DP  RH WIND       PRES   REMARKS
SAVANNAH       CLEAR     76  73  91 NE7       30.04F
VALDOSTA       CLEAR     76  75  97 NE5       30.01F
ALMA           CLEAR     73  71  93 NE3       30.03F
ST SIMONS      PTCLDY    81  75  82 E9        30.00F
FT STEWART     CLEAR     74  73  93 CALM      30.01F
ALBANY         CLEAR     77  72  84 NE6       30.04F
HUNTER AFB     CLEAR     76  76 100 NE5       30.01F
MOODY AFB      CLEAR     74  71  90 NE5       30.01F
BRUNSWICK      CLEAR     73  73 100 CALM      30.02S


CITY           SKY/WX    TMP DP  RH WIND       PRES   REMARKS
BAINBRIDGE*    CLEAR     77  72  83 CALM      30.01R
MOULTRIE*      CLEAR     75  72  88 CALM      30.03S
VIDALIA*       CLEAR     75  75 100 N3        30.06F
WAYCROSS*        N/A     73  73 100 CALM      30.02F
DOUGLAS*       PTCLDY    75  70  83 NE6       30.04F
$$




USA.gov is the U.S. government's official web portal to all federal, state and local government web resources and services.